• In Germany
  • List of Countries
  • For 7 days
  • Water Temperature
  • Satellite Maps
  • Weather Map
  • Weather Widgets
  • user-avatar
    Login

    Hourly Weather Syanky

    Today, 24 September, Monday

    Time Temperature Precipitation Wind Pressure Humidity
    00:00 +9°C° 0.1 mm 7 mps 685 mmHg 62%
    01:00 +9°C° 0.1 mm 7 mps 684 mmHg 66%
    02:00 +9°C° 0.1 mm 8 mps 683 mmHg 71%
    03:00 +9°C° 1.9 mm 7 mps 683 mmHg 77%
    04:00 +9°C° 1.9 mm 6 mps 683 mmHg 84%
    05:00 +8°C° 1.9 mm 6 mps 683 mmHg 91%
    06:00 +8°C° 2.6 mm 6 mps 684 mmHg 91%
    07:00 +7°C° 2.6 mm 5 mps 685 mmHg 90%
    08:00 +6°C° 2.6 mm 5 mps 686 mmHg 90%
    09:00 +6°C° 0.4 mm 5 mps 687 mmHg 89%
    10:00 +5°C° 0.4 mm 5 mps 688 mmHg 87%
    11:00 +5°C° 0.4 mm 4 mps 689 mmHg 86%
    12:00 +5°C° 0.1 mm 5 mps 690 mmHg 83%
    13:00 +6°C° 0.1 mm 5 mps 690 mmHg 80%
    14:00 +6°C° 0.1 mm 5 mps 691 mmHg 77%
    15:00 +6°C° 0.1 mm 5 mps 691 mmHg 74%
    16:00 +6°C° 0.1 mm 5 mps 692 mmHg 71%
    17:00 +6°C° 0.1 mm 5 mps 692 mmHg 68%
    18:00 +3°C° 0 mm 5 mps 692 mmHg 71%
    19:00 +3°C° 0 mm 4 mps 692 mmHg 74%
    20:00 +2°C° 0 mm 3 mps 693 mmHg 77%
    21:00 +2°C° 0 mm 3 mps 693 mmHg 78%
    22:00 +1°C° 0 mm 3 mps 693 mmHg 79%
    23:00 +1°C° 0 mm 3 mps 693 mmHg 80%

    Tomorrow, 25 September, Tuesday

    Time Temperature Precipitation Wind Pressure Humidity
    00:00 +1°C° 0 mm 3 mps 693 mmHg 81%
    01:00 0°C° 0 mm 3 mps 693 mmHg 82%
    02:00 0°C° 0 mm 3 mps 694 mmHg 83%
    03:00 +1°C° 0.3 mm 3 mps 694 mmHg 85%
    04:00 +1°C° 0.3 mm 3 mps 695 mmHg 88%
    05:00 +1°C° 0.3 mm 3 mps 695 mmHg 90%
    06:00 +1°C° 0.1 mm 3 mps 696 mmHg 89%
    07:00 +2°C° 0.1 mm 3 mps 697 mmHg 89%
    08:00 +1°C° 0.1 mm 4 mps 697 mmHg 88%
    09:00 +3°C° 0.1 mm 4 mps 698 mmHg 81%
    10:00 +4°C° 0.1 mm 4 mps 698 mmHg 73%
    11:00 +5°C° 0.1 mm 5 mps 699 mmHg 66%
    12:00 +5°C° 0.2 mm 5 mps 699 mmHg 63%
    13:00 +6°C° 0.2 mm 5 mps 699 mmHg 60%
    14:00 +5°C° 0.2 mm 6 mps 699 mmHg 57%
    15:00 +6°C° 0.1 mm 5 mps 700 mmHg 58%
    16:00 +6°C° 0.1 mm 5 mps 700 mmHg 58%
    17:00 +5°C° 0.1 mm 4 mps 700 mmHg 59%
    18:00 +4°C° 0 mm 3 mps 700 mmHg 64%
    19:00 +2°C° 0 mm 3 mps 701 mmHg 69%
    20:00 +1°C° 0 mm 2 mps 701 mmHg 74%
    21:00 +1°C° 0 mm 2 mps 701 mmHg 75%
    22:00 -1°C° 0 mm 2 mps 702 mmHg 75%
    23:00 -1°C° 0 mm 2 mps 702 mmHg 76%

    Day after tomorrow, 26 September, Wednesday

    Time Temperature Precipitation Wind Pressure Humidity
    00:00 +1°C° 0 mm 1 mps 702 mmHg 77%
    01:00 +1°C° 0 mm 1 mps 702 mmHg 78%
    02:00 0°C° 0 mm 1 mps 702 mmHg 79%
    03:00 0°C° 0 mm 1 mps 702 mmHg 81%
    04:00 0°C° 0 mm 1 mps 702 mmHg 82%
    05:00 0°C° 0 mm 1 mps 703 mmHg 84%
    06:00 +1°C° 0 mm 1 mps 703 mmHg 80%
    07:00 +2°C° 0 mm 1 mps 703 mmHg 77%
    08:00 +3°C° 0 mm 1 mps 704 mmHg 73%
    09:00 +5°C° 0 mm 1 mps 704 mmHg 64%
    10:00 +7°C° 0 mm 1 mps 704 mmHg 54%
    11:00 +9°C° 0 mm 1 mps 704 mmHg 45%
    12:00 +9°C° 0 mm 2 mps 704 mmHg 43%
    13:00 +9°C° 0 mm 2 mps 704 mmHg 41%
    14:00 +10°C° 0 mm 2 mps 703 mmHg 40%
    15:00 +9°C° 0 mm 2 mps 703 mmHg 45%
    16:00 +9°C° 0 mm 2 mps 702 mmHg 50%
    17:00 +8°C° 0 mm 2 mps 701 mmHg 55%
    18:00 +7°C° 0 mm 2 mps 701 mmHg 60%
    19:00 +5°C° 0 mm 2 mps 701 mmHg 65%
    20:00 +3°C° 0 mm 2 mps 701 mmHg 70%
    21:00 +3°C° 0 mm 2 mps 701 mmHg 70%
    22:00 +3°C° 0 mm 2 mps 700 mmHg 70%
    23:00 +3°C° 0 mm 2 mps 700 mmHg 70%

    27 September, Thursday

    Time Temperature Precipitation Wind Pressure Humidity
    00:00 +2°C° 0 mm 3 mps 700 mmHg 70%
    01:00 +2°C° 0 mm 3 mps 700 mmHg 69%
    02:00 +2°C° 0 mm 3 mps 700 mmHg 68%
    03:00 +2°C° 0 mm 3 mps 699 mmHg 69%
    04:00 +2°C° 0 mm 3 mps 699 mmHg 69%
    05:00 +2°C° 0 mm 3 mps 699 mmHg 69%
    06:00 +3°C° 0 mm 3 mps 699 mmHg 67%
    07:00 +3°C° 0 mm 3 mps 699 mmHg 65%
    08:00 +4°C° 0 mm 3 mps 698 mmHg 62%
    09:00 +5°C° 0 mm 3 mps 699 mmHg 58%
    10:00 +8°C° 0 mm 3 mps 699 mmHg 54%
    11:00 +9°C° 0 mm 3 mps 699 mmHg 50%
    12:00 +10°C° 0 mm 3 mps 699 mmHg 49%
    13:00 +11°C° 0 mm 3 mps 698 mmHg 48%
    14:00 +12°C° 0 mm 3 mps 698 mmHg 47%
    15:00 +12°C° 0 mm 3 mps 698 mmHg 51%
    16:00 +12°C° 0 mm 2 mps 697 mmHg 54%
    17:00 +12°C° 0 mm 2 mps 697 mmHg 58%
    18:00 +9°C° 0 mm 2 mps 697 mmHg 62%
    19:00 +8°C° 0 mm 2 mps 696 mmHg 65%
    20:00 +6°C° 0 mm 2 mps 696 mmHg 69%
    21:00 +6°C° 0 mm 2 mps 696 mmHg 69%
    22:00 +6°C° 0 mm 2 mps 696 mmHg 68%
    23:00 +5°C° 0 mm 2 mps 696 mmHg 68%

    28 September, Friday

    Time Temperature Precipitation Wind Pressure Humidity
    00:00 +5°C° 0 mm 2 mps 695 mmHg 68%
    01:00 +5°C° 0 mm 2 mps 695 mmHg 67%
    02:00 +5°C° 0 mm 2 mps 695 mmHg 67%
    03:00 +5°C° 0 mm 2 mps 694 mmHg 67%
    04:00 +5°C° 0 mm 2 mps 694 mmHg 67%
    05:00 +5°C° 0 mm 2 mps 693 mmHg 67%
    06:00 +6°C° 0 mm 2 mps 694 mmHg 65%
    07:00 +7°C° 0 mm 2 mps 694 mmHg 64%
    08:00 +8°C° 0 mm 2 mps 694 mmHg 62%
    09:00 +10°C° 0 mm 2 mps 694 mmHg 57%
    10:00 +13°C° 0 mm 2 mps 694 mmHg 51%
    11:00 +15°C° 0 mm 2 mps 694 mmHg 46%
    12:00 +16°C° 0 mm 2 mps 694 mmHg 45%
    13:00 +17°C° 0 mm 2 mps 694 mmHg 45%
    14:00 +17°C° 0 mm 2 mps 694 mmHg 44%
    15:00 +18°C° 0 mm 1 mps 694 mmHg 49%
    16:00 +16°C° 0 mm 1 mps 693 mmHg 55%
    17:00 +15°C° 0 mm 1 mps 693 mmHg 60%
    18:00 +13°C° 0 mm 1 mps 693 mmHg 66%
    19:00 +11°C° 0 mm 1 mps 693 mmHg 72%
    20:00 +10°C° 0 mm 1 mps 693 mmHg 77%
    21:00 +9°C° 0 mm 1 mps 693 mmHg 80%
    22:00 +9°C° 0 mm 1 mps 693 mmHg 83%
    23:00 +9°C° 0 mm 1 mps 694 mmHg 86%

    29 September, Saturday

    Time Temperature Precipitation Wind Pressure Humidity
    00:00 +8°C° 0 mm 1 mps 694 mmHg 88%
    01:00 +7°C° 0 mm 2 mps 694 mmHg 90%
    02:00 +7°C° 0 mm 2 mps 694 mmHg 92%
    03:00 +7°C° 0 mm 2 mps 694 mmHg 92%
    04:00 +7°C° 0 mm 2 mps 694 mmHg 92%
    05:00 +7°C° 0 mm 2 mps 694 mmHg 92%
    06:00 +7°C° 0 mm 2 mps 695 mmHg 90%
    07:00 +8°C° 0 mm 2 mps 695 mmHg 89%
    08:00 +8°C° 0 mm 3 mps 695 mmHg 87%
    09:00 +9°C° 0 mm 3 mps 696 mmHg 83%
    10:00 +10°C° 0 mm 3 mps 696 mmHg 79%
    11:00 +10°C° 0 mm 4 mps 697 mmHg 74%
    12:00 +11°C° 0 mm 4 mps 697 mmHg 72%
    13:00 +11°C° 0 mm 4 mps 697 mmHg 70%
    14:00 +11°C° 0 mm 4 mps 697 mmHg 67%
    15:00 +11°C° 0 mm 4 mps 697 mmHg 69%
    16:00 +10°C° 0 mm 3 mps 697 mmHg 71%
    17:00 +9°C° 0 mm 3 mps 696 mmHg 73%
    18:00 +8°C° 0 mm 3 mps 697 mmHg 78%
    19:00 +7°C° 0 mm 3 mps 697 mmHg 83%
    20:00 +5°C° 0 mm 2 mps 697 mmHg 88%
    21:00 +5°C° 0 mm 2 mps 697 mmHg 88%
    22:00 +5°C° 0 mm 2 mps 697 mmHg 89%
    23:00 +5°C° 0 mm 2 mps 697 mmHg 90%
    Show more